This is the latest recevied weather packets stored in our database for station/object K7SKM. If no packets are shown the sender has not sent any weather packets the latest 10 day(s).
| Time | Temp. | Humidity | Pressure | Rain* | Wind** | Luminosity | Snow |
|---|---|---|---|---|---|---|---|
| 1778031004 | 17.78° C | 64% | 1019.4 hPa | 0 mm | - | 41 W/m² | - |
| 1778030700 | 18.33° C | 64% | 1019.8 hPa | 0 mm | - | 41 W/m² | - |
| 1778030397 | 18.33° C | 63% | 1019.7 hPa | 0 mm | - | 54 W/m² | - |
| 1778030094 | 18.33° C | 63% | 1019.6 hPa | 0 mm | - | 58 W/m² | - |
| 1778029791 | 18.89° C | 61% | 1019.6 hPa | 0 mm | - | 47 W/m² | - |
| 1778029490 | 18.89° C | 61% | 1019.6 hPa | 0 mm | - | 72 W/m² | - |
| 1778029185 | 20° C | 59% | 1019.7 hPa | 0 mm | - | 136 W/m² | - |
| 1778028884 | 20° C | 58% | 1019.7 hPa | 0 mm | - | 290 W/m² | - |
| 1778028578 | 20° C | 57% | 1019.8 hPa | 0 mm | - | 296 W/m² | - |
| 1778028277 | 20° C | 59% | 1019.8 hPa | 0 mm | - | 301 W/m² | - |
| 1778027973 | 19.44° C | 60% | 1019.7 hPa | 0 mm | - | 304 W/m² | - |
| 1778027669 | 19.44° C | 61% | 1019.7 hPa | 0 mm | - | 306 W/m² | - |
| 1778027366 | 18.89° C | 61% | 1019.6 hPa | 0 mm | - | 312 W/m² | - |
| 1778027062 | 18.89° C | 60% | 1019.9 hPa | 0 mm | - | 320 W/m² | - |
| 1778026757 | 20° C | 59% | 1019.9 hPa | 0 mm | - | 326 W/m² | - |
| 1778026455 | 18.89° C | 60% | 1020 hPa | 0 mm | - | 332 W/m² | - |
| 1778026152 | 20° C | 58% | 1019.7 hPa | 0 mm | - | 337 W/m² | - |
| 1778025849 | 18.89° C | 61% | 1019.9 hPa | 0 mm | - | 337 W/m² | - |
| 1778025546 | 19.44° C | 59% | 1020.1 hPa | 0 mm | - | 341 W/m² | - |
| 1778025244 | 19.44° C | 60% | 1020 hPa | 0 mm | - | 343 W/m² | - |
| 1778024941 | 20° C | 59% | 1020.1 hPa | 0 mm | - | 283 W/m² | - |
| 1778024638 | 20° C | 60% | 1020.1 hPa | 0 mm | - | 356 W/m² | - |
| 1778024335 | 18.89° C | 61% | 1020.1 hPa | 0 mm | - | 358 W/m² | - |
| 1778024033 | 19.44° C | 59% | 1020.2 hPa | 0 mm | - | 369 W/m² | - |
| 1778023730 | 19.44° C | 59% | 1020.1 hPa | 0 mm | - | 386 W/m² | - |
* Rain latest hour (hover to see other rain measurements)
** Current wind speed in m/s (hover to see current wind gust speed)